K5LRY-13 Weather Reports


Display with metric or nautical units.
time (UTC)temp
F
wind
direction
speed
MPH
gust
MPH
rain 1hr
in
rain 24hr
in
rain mn
in
humidity
%
barometer
mb
20260831030314 60 260 0.0 0.0 0.00 0.13 0.01 59 1032.8
20260831024813 60 260 0.0 0.0 0.00 0.13 0.01 57 1032.6
20260831023323 61 260 0.0 0.0 0.00 0.13 0.01 55 1032.4
20260831021820 62 260 0.0 0.0 0.00 0.17 0.01 53 1032.3
20260831020336 63 260 0.0 0.0 0.00 0.17 0.01 51 1032.0
20260831014830 65 260 0.0 0.0 0.00 0.17 0.01 44 1031.9
20260831013323 67 260 0.0 0.0 0.00 0.17 0.01 43 1031.9
20260831011817 70 260 0.0 0.0 0.00 0.17 0.01 40 1031.9
20260831010331 72 260 0.0 0.0 0.00 0.17 0.01 36 1031.9
20260831004825 72 260 0.0 0.0 0.00 0.17 0.01 33 1032.1
20260831003319 72 260 0.0 1.0 0.00 0.17 0.01 33 1032.1
20260831001833 72 260 0.0 4.0 0.00 0.17 0.01 32 1032.3
20260831000320 73 260 1.0 4.0 0.00 0.17 0.01 29 1032.4
20260830234815 73 260 1.0 6.0 0.00 0.17 0.01 29 1032.1
20260830233336 74 252 0.0 4.0 0.00 0.17 0.01 31 1032.1
20260830231829 75 247 1.0 7.0 0.00 0.17 0.01 33 1032.2
20260830230323 74 239 1.0 10.0 0.00 0.17 0.01 31 1032.5
20260830224816 75 196 2.0 6.0 0.00 0.17 0.01 31 1032.7
20260830223331 76 213 4.0 10.0 0.00 0.17 0.01 31 1032.6
20260830221824 76 268 3.0 10.0 0.00 0.17 0.01 28 1032.6
20260830220338 76 223 1.0 5.0 0.00 0.17 0.01 27 1032.5
20260830214832 76 262 4.0 11.0 0.00 0.17 0.01 27 1032.9
20260830213346 77 258 4.0 9.0 0.00 0.17 0.01 29 1033.0
20260830211819 76 233 1.0 9.0 0.00 0.17 0.01 34 1033.3
20260830210312 76 275 4.0 11.0 0.00 0.17 0.01 31 1033.7
20260830204825 77 241 3.0 11.0 0.00 0.17 0.01 29 1033.6
20260830203319 75 245 4.0 9.0 0.00 0.17 0.01 33 1033.8
20260830201811 76 191 4.0 10.0 0.00 0.17 0.01 32 1033.8
20260830200325 74 246 1.0 7.0 0.00 0.17 0.01 41 1034.3
20260830194840 73 194 2.0 10.0 0.00 0.17 0.01 39 1034.2
20260830193314 72 269 3.0 15.0 0.00 0.17 0.01 40 1034.3
20260830191827 73 260 4.0 10.0 0.00 0.17 0.01 43 1034.3
20260830190342 72 267 3.0 9.0 0.00 0.17 0.01 45 1034.5
20260830184815 71 256 5.0 12.0 0.00 0.17 0.01 45 1034.5
20260830183330 71 259 3.0 17.0 0.00 0.17 0.01 42 1034.4
20260830181823 72 227 4.0 11.0 0.00 0.17 0.01 43 1034.3
20260830180320 70 198 3.0 10.0 0.00 0.17 0.01 49 1034.4
20260830174814 68 204 3.0 7.0 0.00 0.17 0.01 50 1034.3
20260830173350 67 160 3.0 7.0 0.00 0.17 0.01 53 1034.4
20260830171822 65 249 4.0 9.0 0.00 0.17 0.01 52 1034.8
20260830170337 65 241 0.0 5.0 0.00 0.17 0.01 56 1035.0
20260830164858 65 242 3.0 5.0 0.00 0.17 0.01 53 1035.1
20260830163352 64 253 5.0 10.0 0.00 0.17 0.01 53 1035.0
20260830161825 64 261 1.0 6.0 0.00 0.17 0.01 58 1034.9
20260830160312 63 251 2.0 7.0 0.00 0.17 0.01 58 1034.8
20260830154831 62 311 2.0 4.0 0.01 0.17 0.01 62 1034.5
20260830153320 61 311 0.0 2.0 0.01 0.17 0.01 64 1034.4
20260830151812 61 20 0.0 4.0 0.01 0.17 0.01 69 1034.5
20260830150348 60 27 0.0 3.0 0.01 0.17 0.01 71 1034.3
20260830144849 57 27 0.0 0.0 0.00 0.16 0.00 80 1034.2
20260830143344 56 27 0.0 0.0 0.00 0.16 0.00 93 1034.2
20260830141816 56 27 0.0 0.0 0.00 0.16 0.00 95 1034.2
20260830140330 54 27 0.0 0.0 0.00 0.16 0.00 94 1034.2
20260830134824 53 27 0.0 0.0 0.00 0.16 0.00 93 1034.2
20260830133339 51 27 0.0 0.0 0.00 0.16 0.00 93 1034.1
20260830131848 51 27 0.0 0.0 0.00 0.16 0.00 92 1033.8
20260830130316 50 27 0.0 0.0 0.00 0.16 0.00 92 1033.8
20260830124852 50 27 0.0 0.0 0.00 0.16 0.00 92 1033.5
20260830123325 51 27 0.0 0.0 0.00 0.16 0.00 91 1033.5
20260830121818 51 27 0.0 0.0 0.00 0.16 0.00 91 1033.6
20260830120311 52 27 0.0 0.0 0.00 0.16 0.00 91 1033.6
20260830114825 53 27 0.0 0.0 0.00 0.16 0.00 92 1033.5
20260830113320 53 27 0.0 0.0 0.00 0.16 0.00 92 1033.3
20260830111813 53 27 0.0 1.0 0.00 0.16 0.00 92 1033.3
20260830110328 53 27 0.0 0.0 0.00 0.16 0.00 92 1033.2
20260830104821 53 27 0.0 3.0 0.00 0.16 0.00 92 1032.9
20260830103337 53 27 0.0 0.0 0.00 0.16 0.00 92 1032.8
20260830101830 53 27 0.0 0.0 0.00 0.16 0.00 92 1032.9
20260830100323 53 27 0.0 0.0 0.00 0.16 0.00 92 1033.0
20260830094817 53 27 0.0 0.0 0.00 0.16 0.00 91 1033.0
20260830093312 54 27 0.0 2.0 0.00 0.16 0.00 91 1033.0
20260830091825 54 27 0.0 3.0 0.00 0.16 0.00 90 1033.0
20260830090320 54 27 0.0 3.0 0.00 0.16 0.00 90 1033.2
20260830084817 54 25 2.0 6.0 0.00 0.16 0.00 90 1033.3
20260830083331 54 25 2.0 8.0 0.00 0.16 0.00 90 1033.5
20260830081822 54 31 5.0 12.0 0.00 0.16 0.00 90 1033.5
20260830080337 54 41 5.0 10.0 0.00 0.16 0.00 91 1033.9
20260830074831 54 36 1.0 4.0 0.00 0.16 0.00 92 1034.0
20260830073318 54 36 0.0 1.0 0.00 0.16 0.00 92 1034.4
20260830071811 54 36 0.0 0.0 0.00 0.16 0.00 92 1034.2
20260830070326 54 36 0.0 0.0 0.00 0.16 0.00 92 1033.9
20260830064819 54 36 0.0 1.0 0.00 0.16 0.00 91 1034.0
20260830063334 54 36 0.0 0.0 0.00 0.16 0.00 91 1034.2
20260830061826 54 36 0.0 1.0 0.00 0.16 0.16 90 1034.2
20260830060321 54 36 0.0 6.0 0.00 0.16 0.16 89 1034.3
20260830054815 54 34 4.0 6.0 0.00 0.16 0.16 88 1034.2
20260830053351 54 4 2.0 9.0 0.00 0.16 0.16 90 1034.3
20260830051850 55 359 0.0 0.0 0.00 0.16 0.16 91 1034.8
20260830050323 55 350 0.0 1.0 0.00 0.16 0.16 91 1035.0
20260830044838 55 354 0.0 0.0 0.00 0.16 0.16 90 1035.0
20260830043312 55 350 0.0 0.0 0.01 0.16 0.16 89 1035.3
20260830041824 55 354 0.0 8.0 0.04 0.16 0.16 89 1035.3
20260830040317 55 350 0.0 4.0 0.07 0.16 0.16 89 1034.8
20260830034811 55 350 4.0 6.0 0.08 0.16 0.16 87 1035.3
20260830033326 56 20 3.0 9.0 0.09 0.15 0.15 87 1035.6
20260830031818 57 231 0.0 3.0 0.09 0.12 0.12 86 1036.6